{"data":{"norad_id":65363,"epoch":"2026-05-25T02:28:29.872128Z","epoch_age_seconds":62167,"freshness":"FRESH","line1":"1 65363U 25190N   26145.10312352  .00114864  00000+0  34748-2 0  9996","line2":"2 65363  53.1579 173.3040 0001889 342.5571  17.5366 15.33327095 41456","mean_motion":15.33327095,"eccentricity":0.0001889,"inclination_deg":53.1579,"raan_deg":173.304,"arg_perigee_deg":342.5571,"mean_anomaly_deg":17.5366,"bstar":0.0034748,"rev_number":4145,"period_min":93.913425562991,"perigee_km":464.60116182803,"apogee_km":467.18683673956,"semimajor_km":6844.0309992838,"source":"CELESTRAK","updated_at":"2026-05-25T13:38:20.767412Z"}}